• In France
  • List of Countries
  • For 7 days
  • Water Temperature
  • Satellite Maps
  • Weather Map
  • Weather Widgets
  • user-avatar
    Login

    Hourly Weather Liberia

    Today, 22 August, Wednesday

    Time Temperature Precipitation Wind Pressure Humidity
    00:00 +27°C° 0 mm 4 mps 746 mmHg 85%
    01:00 +26°C° 0 mm 4 mps 745 mmHg 85%
    02:00 +26°C° 0 mm 4 mps 745 mmHg 86%
    03:00 +26°C° 0 mm 4 mps 745 mmHg 87%
    04:00 +26°C° 0 mm 4 mps 745 mmHg 87%
    05:00 +26°C° 0 mm 4 mps 745 mmHg 86%
    06:00 +26°C° 0 mm 4 mps 745 mmHg 86%
    07:00 +28°C° 0 mm 5 mps 745 mmHg 78%
    08:00 +30°C° 0 mm 5 mps 746 mmHg 71%
    09:00 +32°C° 0 mm 6 mps 746 mmHg 63%
    10:00 +34°C° 0 mm 6 mps 746 mmHg 58%
    11:00 +35°C° 0 mm 6 mps 746 mmHg 54%
    12:00 +36°C° 0 mm 6 mps 745 mmHg 49%
    13:00 +36°C° 0.3 mm 5 mps 745 mmHg 49%
    14:00 +36°C° 0.3 mm 5 mps 744 mmHg 48%
    15:00 +36°C° 0.3 mm 5 mps 744 mmHg 48%
    16:00 +35°C° 0.3 mm 4 mps 744 mmHg 55%
    17:00 +33°C° 0.3 mm 4 mps 744 mmHg 61%
    18:00 +30°C° 0.3 mm 3 mps 744 mmHg 68%
    19:00 +29°C° 0.1 mm 3 mps 745 mmHg 72%
    20:00 +28°C° 0.1 mm 3 mps 745 mmHg 76%
    21:00 +27°C° 0.1 mm 3 mps 746 mmHg 81%
    22:00 +27°C° 0 mm 2 mps 746 mmHg 82%
    23:00 +26°C° 0 mm 2 mps 746 mmHg 84%

    Tomorrow, 23 August, Thursday

    Time Temperature Precipitation Wind Pressure Humidity
    00:00 +26°C° 0 mm 2 mps 746 mmHg 85%
    01:00 +26°C° 0 mm 2 mps 745 mmHg 85%
    02:00 +26°C° 0 mm 2 mps 745 mmHg 85%
    03:00 +26°C° 0 mm 2 mps 745 mmHg 85%
    04:00 +26°C° 0 mm 2 mps 745 mmHg 84%
    05:00 +26°C° 0 mm 2 mps 745 mmHg 84%
    06:00 +26°C° 0 mm 2 mps 745 mmHg 83%
    07:00 +27°C° 0 mm 2 mps 746 mmHg 77%
    08:00 +29°C° 0 mm 3 mps 746 mmHg 72%
    09:00 +30°C° 0 mm 3 mps 747 mmHg 66%
    10:00 +31°C° 0.2 mm 3 mps 746 mmHg 63%
    11:00 +33°C° 0.2 mm 4 mps 746 mmHg 60%
    12:00 +34°C° 0.2 mm 4 mps 746 mmHg 58%
    13:00 +33°C° 0.8 mm 4 mps 745 mmHg 61%
    14:00 +32°C° 0.8 mm 4 mps 745 mmHg 65%
    15:00 +32°C° 0.8 mm 4 mps 744 mmHg 69%
    16:00 +29°C° 0.7 mm 4 mps 744 mmHg 73%
    17:00 +28°C° 0.7 mm 3 mps 744 mmHg 77%
    18:00 +27°C° 0.7 mm 3 mps 744 mmHg 82%
    19:00 +27°C° 0.2 mm 3 mps 745 mmHg 83%
    20:00 +26°C° 0.2 mm 3 mps 745 mmHg 84%
    21:00 +26°C° 0.2 mm 3 mps 746 mmHg 85%
    22:00 +26°C° 0.2 mm 2 mps 746 mmHg 85%
    23:00 +26°C° 0.2 mm 2 mps 745 mmHg 86%

    Day after tomorrow, 24 August, Friday

    Time Temperature Precipitation Wind Pressure Humidity
    00:00 +25°C° 0.2 mm 2 mps 745 mmHg 86%
    01:00 +25°C° 0.1 mm 2 mps 745 mmHg 87%
    02:00 +25°C° 0.1 mm 2 mps 744 mmHg 87%
    03:00 +25°C° 0.1 mm 2 mps 744 mmHg 87%
    04:00 +25°C° 0.1 mm 2 mps 744 mmHg 87%
    05:00 +25°C° 0.1 mm 2 mps 744 mmHg 87%
    06:00 +25°C° 0.1 mm 2 mps 744 mmHg 88%
    07:00 +27°C° 0.2 mm 2 mps 745 mmHg 80%
    08:00 +29°C° 0.2 mm 3 mps 746 mmHg 73%
    09:00 +31°C° 0.2 mm 3 mps 746 mmHg 65%
    10:00 +31°C° 0.3 mm 3 mps 746 mmHg 63%
    11:00 +33°C° 0.3 mm 3 mps 746 mmHg 60%
    12:00 +34°C° 0.3 mm 3 mps 746 mmHg 57%
    13:00 +33°C° 1.6 mm 3 mps 745 mmHg 62%
    14:00 +31°C° 1.6 mm 3 mps 744 mmHg 67%
    15:00 +30°C° 1.6 mm 3 mps 744 mmHg 72%
    16:00 +29°C° 2 mm 3 mps 744 mmHg 77%
    17:00 +28°C° 2 mm 2 mps 744 mmHg 82%
    18:00 +27°C° 2 mm 2 mps 744 mmHg 87%
    19:00 +27°C° 1.6 mm 2 mps 745 mmHg 88%
    20:00 +26°C° 1.6 mm 2 mps 746 mmHg 89%
    21:00 +26°C° 1.6 mm 2 mps 746 mmHg 90%
    22:00 +26°C° 0.5 mm 2 mps 746 mmHg 90%
    23:00 +26°C° 0.5 mm 2 mps 746 mmHg 91%

    25 August, Saturday

    Time Temperature Precipitation Wind Pressure Humidity
    00:00 +25°C° 0.5 mm 2 mps 746 mmHg 92%
    01:00 +25°C° 0.2 mm 2 mps 745 mmHg 92%
    02:00 +25°C° 0.2 mm 1 mps 745 mmHg 92%
    03:00 +25°C° 0.2 mm 1 mps 744 mmHg 92%
    04:00 +25°C° 0.1 mm 2 mps 745 mmHg 92%
    05:00 +25°C° 0.1 mm 2 mps 745 mmHg 92%
    06:00 +25°C° 0.1 mm 2 mps 745 mmHg 92%
    07:00 +26°C° 0.1 mm 2 mps 746 mmHg 84%
    08:00 +28°C° 0.1 mm 2 mps 746 mmHg 77%
    09:00 +30°C° 0.1 mm 2 mps 746 mmHg 69%
    10:00 +31°C° 0.4 mm 2 mps 746 mmHg 66%
    11:00 +32°C° 0.4 mm 2 mps 746 mmHg 63%
    12:00 +34°C° 0.4 mm 2 mps 745 mmHg 60%
    13:00 +32°C° 2 mm 2 mps 745 mmHg 66%
    14:00 +31°C° 2 mm 2 mps 744 mmHg 72%
    15:00 +30°C° 2 mm 2 mps 744 mmHg 78%
    16:00 +29°C° 2.4 mm 2 mps 744 mmHg 81%
    17:00 +28°C° 2.4 mm 2 mps 744 mmHg 85%
    18:00 +27°C° 2.4 mm 2 mps 745 mmHg 89%
    19:00 +26°C° 1.6 mm 2 mps 745 mmHg 89%
    20:00 +26°C° 1.6 mm 2 mps 746 mmHg 90%
    21:00 +26°C° 1.6 mm 2 mps 747 mmHg 90%
    22:00 +26°C° 0.4 mm 2 mps 746 mmHg 90%
    23:00 +25°C° 0.4 mm 2 mps 746 mmHg 90%

    26 August, Sunday

    Time Temperature Precipitation Wind Pressure Humidity
    00:00 +25°C° 0.4 mm 2 mps 746 mmHg 90%
    01:00 +25°C° 0.2 mm 2 mps 745 mmHg 91%
    02:00 +25°C° 0.2 mm 2 mps 745 mmHg 91%
    03:00 +25°C° 0.2 mm 2 mps 744 mmHg 91%
    04:00 +25°C° 0.1 mm 2 mps 745 mmHg 92%
    05:00 +25°C° 0.1 mm 2 mps 745 mmHg 92%
    06:00 +25°C° 0.1 mm 2 mps 745 mmHg 92%
    07:00 +26°C° 0.1 mm 2 mps 746 mmHg 88%
    08:00 +27°C° 0.1 mm 3 mps 746 mmHg 85%
    09:00 +28°C° 0.1 mm 3 mps 746 mmHg 81%
    10:00 +29°C° 0.1 mm 2 mps 746 mmHg 76%
    11:00 +30°C° 0.1 mm 2 mps 746 mmHg 70%
    12:00 +31°C° 0.1 mm 2 mps 745 mmHg 65%
    13:00 +31°C° 0.6 mm 2 mps 745 mmHg 65%
    14:00 +31°C° 0.6 mm 2 mps 744 mmHg 66%
    15:00 +31°C° 0.6 mm 1 mps 743 mmHg 66%
    16:00 +30°C° 1.1 mm 2 mps 744 mmHg 72%
    17:00 +28°C° 1.1 mm 2 mps 744 mmHg 79%
    18:00 +27°C° 1.1 mm 2 mps 745 mmHg 85%
    19:00 +27°C° 0.7 mm 2 mps 745 mmHg 86%
    20:00 +26°C° 0.7 mm 2 mps 746 mmHg 88%
    21:00 +26°C° 0.7 mm 2 mps 746 mmHg 89%
    22:00 +26°C° 0.8 mm 2 mps 746 mmHg 89%
    23:00 +25°C° 0.8 mm 2 mps 745 mmHg 90%

    27 August, Monday

    Time Temperature Precipitation Wind Pressure Humidity
    00:00 +25°C° 0.8 mm 2 mps 745 mmHg 90%
    01:00 +25°C° 0.4 mm 2 mps 745 mmHg 91%
    02:00 +25°C° 0.4 mm 2 mps 744 mmHg 91%
    03:00 +25°C° 0.4 mm 2 mps 744 mmHg 91%
    04:00 +25°C° 0.1 mm 2 mps 744 mmHg 91%
    05:00 +25°C° 0.1 mm 2 mps 745 mmHg 91%
    06:00 +25°C° 0.1 mm 2 mps 745 mmHg 91%
    07:00 +26°C° 0.1 mm 2 mps 746 mmHg 84%
    08:00 +28°C° 0.1 mm 2 mps 746 mmHg 78%
    09:00 +29°C° 0.1 mm 2 mps 746 mmHg 71%
    10:00 +30°C° 0.3 mm 2 mps 746 mmHg 68%
    11:00 +31°C° 0.3 mm 2 mps 746 mmHg 65%
    12:00 +32°C° 0.3 mm 1 mps 745 mmHg 62%
    13:00 +32°C° 1.3 mm 2 mps 745 mmHg 65%
    14:00 +31°C° 1.3 mm 2 mps 744 mmHg 68%
    15:00 +31°C° 1.3 mm 2 mps 743 mmHg 71%
    16:00 +29°C° 1.7 mm 2 mps 744 mmHg 76%
    17:00 +28°C° 1.7 mm 1 mps 744 mmHg 81%
    18:00 +27°C° 1.7 mm 1 mps 744 mmHg 87%
    19:00 +27°C° 1.4 mm 1 mps 745 mmHg 87%
    20:00 +27°C° 1.4 mm 1 mps 745 mmHg 88%
    21:00 +26°C° 1.4 mm 1 mps 746 mmHg 89%
    22:00 +26°C° 0.6 mm 1 mps 745 mmHg 89%
    23:00 +26°C° 0.6 mm 1 mps 745 mmHg 90%
    Show more